Location: Saint-Palais-sur-Mer
(45.6429°N, 1.0859°W)
Time: 09:08:19
(UTC+02:00)

TIGRISAT - Pass Details

Date: 04 May 2024
Orbit: 594 x 672 km, 97.7° (Epoch: 21 May)

Event Time Altitude Azimuth Distance (km) Brightness Sun altitude
Rises 05:53:15 0° 164° (SSE) 2,876 ? -9.1°
Reaches altitude 10° 05:55:26 10° 164° (SSE) 1,964 ? -8.7°
Maximum altitude 05:59:42 86° 75° (ENE) 613 ? -8.1°
Drops below altitude 10° 06:03:56 10° 348° (NNW) 1,948 ? -7.5°
Sets 06:06:06 0° 348° (NNW) 2,850 ? -7.2°
